Погода в Сиднее

Австралия     33°52′24″S   151°12′42″E
темп.,
°C
ветер,
м/с
пор.,
м/с
влажн.,
%
обл.,
%
осадки,
мм/ч
давл.,
гПа
погр.,
м
19 сентября, вс
вс1901:00+13з24650 0.0 1021304
04:00+11сз22670 0.0 102173
07:00+12сз24600 0.0 1023116
10:00+19сз35320 0.0 10221026
13:00+23з37250 0.0 10181458
16:00+23з58290 0.0 10171192
19:00+18з512390 0.0 1019395
22:00+14сз36520 0.0 1019112
20 сентября, пн
пн2001:00+13сз410550 0.0 1017200
04:00+13ссз411540 0.0 1015232
07:00+14ссз411500 0.0 1015258
10:00+21сз510280 0.0 10131450
13:00+25зсз712210 0.0 10092276
16:00+23зсз613282 0.0 10072193
19:00+13зюз91661100 0.0 10121098
22:00+12юз6135741 0.0 10131127
21 сентября, вт
вт2101:00+11зюз510582 0.0 1013862
04:00+10зюз51061100 0.0 1013830
07:00+10зюз7105739 0.0 10151025
10:00+12ююз81149100 0.1 10161907
13:00+15ю10144427 0.0 10162295
16:00+14ю1115503 0.0 10181716
19:00+13ю8125415 0.0 10201567
22:00+12ююз7126274 0.6 10221116
22 сентября, ср
ср2201:00+11ююз711564 0.1 10221212
04:00+9зюз5106020 0.1 1022525
07:00+9з59615 0.0 1023321
10:00+15юз46417 0.0 10221056
13:00+17ююв44424 0.0 10211246
16:00+17юв33510 0.0 1020647
19:00+13юв12700 0.0 1021148
22:00+11зсз22770 0.0 102265
23 сентября, чт
чт2301:00+10зсз23780 0.0 102189
04:00+9сз23770 0.0 102086
07:00+11зсз35673 0.0 1020155
10:00+20сз35385 0.0 1019624
13:00+25юв14300 0.0 10151250
16:00+23всв23390 0.0 1013583
19:00+18зюз34530 0.0 101667
22:00+15зсз36620 0.0 1016143